Spokane Fairchild, WA
on Sunday, January 6, 2013

Sunday
Previous Day Next Day
Daily Summary
 ActualAverage (KGEG)Record (KGEG)
Temperature
Mean Temperature °F 28°F  
Max Temperature 28°F 33°F 53°F (1914)
Min Temperature 23°F 23°F -20°F (1899)
Degree Days
Heating Degree Days 40 37  
Month to date heating degree days 224  
Since 1 July heating degree days 3058  
Cooling Degree Days 0 0  
Month to date cooling degree days 0  
Year to date cooling degree days 0  
Moisture
Dew Point 26°F   
Average Humidity 100    
Maximum Humidity 100    
Minimum Humidity 100    
Precipitation
Precipitation 0.05 in 0.07 in 0.80 in (1948)
Month to date precipitation 0.39  
Year to date precipitation 0.39  
Snow
Snow 0.00 in 0.40 in 10.40 in (1950)
Month to date snowfall 2.8  
Since 1 July snowfall 24.9  
Snow Depth in   
Wind
Wind Speed 4 mph   
Max Wind Speed 10 mph   
Max Gust Speed mph   
Visibility 6 miles   
Events Rain , Snow   

Key: T is trace of precipitation, MM is missing value
Source: NWS Daily Summary
Time(PST)TemperatureDew PointHumidity Pressure Visibility Wind DirectionWind SpeedGust SpeedPrecipitationEvents Conditions
12:20 AM 23.0°F 23.0°F 100% 30.13 in 10.0 miles South 2.3 mph - N/A   Overcast
12:37 AM 23.0°F 23.0°F 100% 30.12 in 10.0 miles South 5.8 mph - N/A   Overcast
12:58 AM 23.9°F 23.9°F 100% 30.21 in 10.0 miles South 4.6 mph - 0.00 in   Overcast
1:58 AM 24.3°F 24.3°F 100% 30.21 in 10.0 miles SW 4.6 mph - N/A   Overcast
2:31 AM 24.8°F 24.8°F 100% 30.12 in 10.0 miles South 3.5 mph - N/A   Overcast
2:56 AM 24.8°F 24.8°F 100% 30.12 in 10.0 miles SSE 1.2 mph - N/A   Overcast
2:58 AM 24.6°F 24.6°F 100% 30.21 in 10.0 miles SSE 2.3 mph - 0.00 in   Overcast
3:08 AM 24.8°F 24.8°F 100% 30.12 in 10.0 miles South 4.6 mph - N/A   Overcast
3:28 AM 24.8°F 24.8°F 100% 30.12 in 1.8 miles SSW 1.2 mph - N/A Snow Light Snow
3:33 AM 24.8°F 24.8°F 100% 30.12 in 1.2 miles Calm Calm - N/A Snow Light Snow
3:38 AM 24.8°F 24.8°F 100% 30.11 in 1.5 miles Calm Calm - N/A Snow Light Snow
3:48 AM 24.8°F 24.8°F 100% 30.11 in 1.8 miles South 2.3 mph - N/A Snow Light Snow
3:53 AM 24.8°F 24.8°F 100% 30.11 in 2.0 miles South 2.3 mph - N/A Snow Light Snow
3:58 AM 24.8°F 24.8°F 100% 30.20 in 1.8 miles South 2.3 mph - 0.02 in Snow Light Snow
4:03 AM 24.8°F 24.8°F 100% 30.11 in 1.5 miles South 2.3 mph - N/A Snow Light Snow
4:13 AM 24.8°F 24.8°F 100% 30.10 in 1.8 miles South 3.5 mph - N/A Snow Light Snow
4:18 AM 24.8°F 24.8°F 100% 30.10 in 2.5 miles South 3.5 mph - N/A Snow Light Snow
4:23 AM 24.8°F 24.8°F 100% 30.10 in 4.0 miles South 3.5 mph - N/A Snow Light Snow
4:24 AM 24.8°F 24.8°F 100% 30.10 in 4.0 miles South 3.5 mph - N/A Snow Light Snow
4:49 AM 24.8°F 24.8°F 100% 30.11 in 2.5 miles SW 3.5 mph - N/A Snow Light Snow
4:58 AM 24.1°F 24.1°F 100% 30.19 in 1.8 miles South 4.6 mph - 0.01 in Snow Light Snow
5:03 AM 24.8°F 24.8°F 100% 30.09 in 2.0 miles South 3.5 mph - N/A Snow Light Snow
5:08 AM 24.8°F 24.8°F 100% 30.10 in 3.0 miles South 4.6 mph - N/A Snow Light Snow
5:45 AM 24.8°F 24.8°F 100% 30.09 in 5.0 miles SSE 3.5 mph - N/A   Overcast
5:49 AM 24.8°F 24.8°F 100% 30.09 in 6.0 miles South 3.5 mph - N/A   Overcast
5:54 AM 24.8°F 24.8°F 100% 30.08 in 7.0 miles SSE 3.5 mph - N/A   Overcast
5:58 AM 24.1°F 24.1°F 100% 30.17 in 8.0 miles ESE 1.2 mph - 0.00 in   Overcast
6:01 AM 24.8°F 24.8°F 100% 30.09 in 8.0 miles ENE 1.2 mph - N/A   Overcast
6:06 AM 24.8°F 24.8°F 100% 30.09 in 9.0 miles South 2.3 mph - N/A   Overcast
6:56 AM 24.8°F 24.8°F 100% 30.08 in 10.0 miles South 3.5 mph - N/A   Overcast
6:58 AM 24.6°F 24.6°F 100% 30.18 in 10.0 miles Variable 1.2 mph - N/A   Overcast
7:54 AM 24.8°F 24.8°F 100% 30.09 in 10.0 miles South 5.8 mph - N/A   Overcast
7:58 AM 25.3°F 25.3°F 100% 30.20 in 10.0 miles South 5.8 mph - 0.00 in   Overcast
8:03 AM 24.8°F 24.8°F 100% 30.10 in 10.0 miles SSW 2.3 mph - N/A   Overcast
8:26 AM 24.8°F 24.8°F 100% 30.10 in 10.0 miles SSW 4.6 mph - N/A   Overcast
8:53 AM 24.8°F 24.8°F 100% 30.11 in 10.0 miles South 4.6 mph - N/A   Overcast
8:58 AM 25.7°F 25.7°F 100% 30.22 in 10.0 miles South 5.8 mph - 0.00 in   Overcast
9:03 AM 26.6°F 26.6°F 100% 30.11 in 10.0 miles South 4.6 mph - N/A   Overcast
9:13 AM 26.6°F 26.6°F 100% 30.12 in 10.0 miles South 8.1 mph - N/A   Overcast
9:43 AM 26.6°F 26.6°F 100% 30.12 in 10.0 miles SSW 5.8 mph - N/A   Overcast
9:58 AM 26.1°F 26.1°F 100% 30.23 in 10.0 miles SSW 6.9 mph - N/A   Overcast
10:15 AM 26.6°F 26.6°F 100% 30.12 in 10.0 miles SSW 10.4 mph - N/A   Overcast
10:26 AM 26.6°F 26.6°F 100% 30.12 in 10.0 miles SW 8.1 mph - N/A   Overcast
10:58 AM 26.2°F 26.2°F 100% 30.21 in 10.0 miles SSW 8.1 mph - 0.00 in   Overcast
11:33 AM 26.6°F 26.6°F 100% 30.10 in 10.0 miles SSW 8.1 mph - N/A   Overcast
11:48 AM 26.6°F 26.6°F 100% 30.10 in 10.0 miles SW 6.9 mph - N/A   Overcast
11:58 AM 26.2°F 26.2°F 100% 30.19 in 10.0 miles SSW 8.1 mph - N/A   Overcast
12:08 PM 26.6°F 26.6°F 100% 30.09 in 10.0 miles South 5.8 mph - N/A   Overcast
12:43 PM 26.6°F 26.6°F 100% 30.07 in 10.0 miles SSW 8.1 mph - N/A   Overcast
12:58 PM 26.2°F 26.2°F 100% 30.17 in 10.0 miles SW 6.9 mph - N/A   Overcast
1:43 PM 26.6°F 26.6°F 100% 30.06 in 9.0 miles South 9.2 mph - N/A   Overcast
1:58 PM 26.1°F 26.1°F 100% 30.15 in 10.0 miles South 5.8 mph - N/A   Overcast
2:58 PM 26.2°F 26.2°F 100% 30.15 in 9.0 miles South 9.2 mph - N/A   Overcast
3:15 PM 26.6°F 26.6°F 100% 30.07 in 10.0 miles SSW 8.1 mph - N/A   Overcast
3:26 PM 24.8°F 24.8°F 100% 30.06 in 8.0 miles SSW 5.8 mph - N/A   Overcast
3:31 PM 24.8°F 24.8°F 100% 30.07 in 8.0 miles SW 5.8 mph - N/A   Overcast
3:58 PM 25.9°F 25.9°F 100% 30.17 in 7.0 miles SW 3.5 mph - 0.00 in   Overcast
4:13 PM 26.6°F 26.6°F 100% 30.07 in 7.0 miles SSW 6.9 mph - N/A   Overcast
4:27 PM 26.6°F 26.6°F 100% 30.07 in 7.0 miles South 6.9 mph - N/A   Overcast
4:58 PM 25.7°F 25.7°F 100% 30.15 in 4.0 miles South 6.9 mph - 0.00 in   Overcast
5:13 PM 24.8°F 24.8°F 100% 30.05 in 3.0 miles South 8.1 mph - N/A   Overcast
5:18 PM 24.8°F 24.8°F 100% 30.05 in 1.8 miles South 6.9 mph - N/A   Overcast
5:20 PM 24.8°F 24.8°F 100% 30.05 in 1.2 miles South 5.8 mph - N/A   Overcast
5:25 PM 24.8°F 24.8°F 100% 30.05 in 1.0 miles South 6.9 mph - N/A   Mist
5:26 PM 24.8°F 24.8°F 100% 30.05 in 1.0 miles South 6.9 mph - N/A Rain Light Freezing Rain
5:31 PM 26.6°F 26.6°F 100% 30.06 in 0.8 miles South 5.8 mph - N/A Rain Light Freezing Rain
5:36 PM 26.6°F 26.6°F 100% 30.06 in 0.8 miles South 6.9 mph - N/A Rain Light Freezing Rain
5:41 PM 26.6°F 26.6°F 100% 30.06 in 0.8 miles South 5.8 mph - N/A Rain Light Freezing Rain
5:46 PM 26.6°F 26.6°F 100% 30.06 in 0.8 miles South 8.1 mph - N/A Rain Light Freezing Rain
5:51 PM 26.6°F 26.6°F 100% 30.05 in 0.8 miles South 4.6 mph - N/A Rain Light Freezing Rain
5:58 PM 26.1°F 26.1°F 100% 30.14 in 0.8 miles South 5.8 mph - 0.00 in Rain Light Freezing Rain
6:03 PM 26.6°F 26.6°F 100% 30.05 in 0.8 miles South 6.9 mph - N/A Rain Light Freezing Rain
6:08 PM 26.6°F 26.6°F 100% 30.06 in 0.8 miles South 5.8 mph - N/A Rain Light Freezing Rain
6:28 PM 26.6°F 26.6°F 100% 30.05 in 0.8 miles South 4.6 mph - N/A Rain Light Freezing Rain
6:33 PM 26.6°F 26.6°F 100% 30.05 in 1.0 miles South 5.8 mph - N/A   Mist
6:55 PM 26.8°F 26.8°F 100% 30.14 in 1.5 miles South 4.6 mph - N/A   Overcast
7:14 PM 26.6°F 26.6°F 100% 30.14 in 2.0 miles Calm Calm - N/A   Overcast
7:26 PM 26.6°F 26.6°F 100% 30.14 in 4.0 miles ESE 2.3 mph - N/A   Overcast
7:37 PM 26.6°F 26.6°F 100% 30.05 in 3.0 miles SSE 2.3 mph - N/A   Overcast
7:45 PM 26.6°F 26.6°F 100% 30.05 in 4.0 miles SSE 2.3 mph - N/A   Overcast
7:58 PM 27.1°F 27.1°F 100% 30.14 in 5.0 miles SSE 3.5 mph - 0.00 in   Overcast
8:02 PM 26.6°F 26.6°F 100% 30.05 in 5.0 miles South 3.5 mph - N/A   Overcast
8:17 PM 26.6°F 26.6°F 100% 30.05 in 7.0 miles South 3.5 mph - N/A   Overcast
8:22 PM 26.6°F 26.6°F 100% 30.05 in 8.0 miles South 3.5 mph - N/A   Overcast
8:27 PM 26.6°F 26.6°F 100% 30.05 in 8.0 miles South 3.5 mph - N/A   Overcast
8:47 PM 26.6°F 26.6°F 100% 30.06 in 10.0 miles South 5.8 mph - N/A   Overcast
8:52 PM 28.4°F 28.4°F 100% 30.06 in 10.0 miles South 6.9 mph - N/A   Overcast
8:58 PM 27.7°F 27.7°F 100% 30.14 in 10.0 miles South 5.8 mph - 0.00 in   Overcast
9:03 PM 28.4°F 28.4°F 100% 30.05 in 10.0 miles South 5.8 mph - N/A   Overcast
9:10 PM 28.4°F 28.4°F 100% 30.05 in 10.0 miles South 4.6 mph - N/A   Overcast
9:25 PM 28.4°F 28.4°F 100% 30.04 in 10.0 miles South 8.1 mph - N/A   Overcast
9:45 PM 28.4°F 28.4°F 100% 30.05 in 3.0 miles SSW 6.9 mph - N/A Snow Light Snow
9:58 PM 28.0°F 28.0°F 100% 30.14 in 3.0 miles SSW 6.9 mph - 0.00 in Snow Light Snow
10:03 PM 28.4°F 28.4°F 100% 30.05 in 2.5 miles SSW 5.8 mph - N/A Snow Light Snow
10:23 PM 28.4°F 28.4°F 100% 30.05 in 2.5 miles South 8.1 mph - N/A Snow Light Snow
10:53 PM 28.4°F 28.4°F 100% 30.03 in 3.0 miles South 9.2 mph - N/A Snow Light Snow
10:58 PM 28.2°F 28.2°F 100% 30.11 in 4.0 miles South 10.4 mph - 0.01 in Snow Light Snow
11:13 PM 28.4°F 28.4°F 100% 30.02 in 4.0 miles South 8.1 mph - N/A Snow Light Snow
11:58 PM 28.6°F 28.6°F 100% 30.10 in 4.0 miles South 9.2 mph - 0.01 in Snow Light Snow
Moon Phase
Jan. 06 Jan. 11 Jan. 18 Jan. 26 Feb. 03
Sunrise:07:38 AM (PST) Moon Rise:01:48 AM (PST)1/6
Sunset:04:15 PM (PST) Moon Set:11:53 AM (PST)1/6

Copyright © 2014 The Weather Underground, Inc.